User: anonymous   Login
Location: Unspecified
(0.0000°N, 0.0000°E)
Time: 02:57:44
(UTC+00:00)
Language:

NOAA 1 - Orbit

View from above orbital plane
View from above orbital plane
View from above satellite
View from above satellite

Ground track
Ground track

The orbit data is extracted from the following two-line orbital elements,

1  4793U 70106A   18171.19564001 -.00000050 +00000-0 -27363-4 0  9993
2  4793 101.7513 238.7421 0031331 267.9939 155.2216 12.53985354174803
Epoch (UTC): 20 June 2018 04:41:43
Eccentricity: 0.0031331
inclination: 101.7513°
perigee height: 1423 km
apogee height: 1472 km
right ascension of ascending node: 238.7421°
argument of perigee: 267.9939°
revolutions per day: 12.53985354
mean anomaly at epoch: 155.2216°
orbit number at epoch: 17480

The dashed part of the orbit path shows where the satellite is in the earth's shadow,  

DLR